• In Belarus
  • List of Countries
  • For 7 days
  • Water Temperature
  • Satellite Maps
  • Weather Map
  • Weather Widgets
  • user-avatar
    Login

    Hourly Weather Verhovina

    Today, 20 October, Friday

    Time Temperature Precipitation Wind Pressure Humidity
    00:00 +10°C° 0 mm 1 mps 698 mmHg 74%
    01:00 +10°C° 0 mm 1 mps 698 mmHg 75%
    02:00 +10°C° 0 mm 1 mps 698 mmHg 76%
    03:00 +9°C° 0 mm 1 mps 698 mmHg 77%
    04:00 +9°C° 0 mm 1 mps 698 mmHg 78%
    05:00 +9°C° 0 mm 1 mps 698 mmHg 78%
    06:00 +9°C° 0 mm 1 mps 698 mmHg 76%
    07:00 +10°C° 0 mm 1 mps 698 mmHg 73%
    08:00 +10°C° 0 mm 1 mps 698 mmHg 71%
    09:00 +13°C° 0 mm 1 mps 699 mmHg 62%
    10:00 +15°C° 0 mm 1 mps 699 mmHg 53%
    11:00 +19°C° 0 mm 1 mps 700 mmHg 44%
    12:00 +19°C° 0 mm 1 mps 700 mmHg 43%
    13:00 +20°C° 0 mm 1 mps 700 mmHg 42%
    14:00 +20°C° 0 mm 1 mps 700 mmHg 40%
    15:00 +18°C° 0 mm 1 mps 699 mmHg 48%
    16:00 +16°C° 0 mm 1 mps 699 mmHg 56%
    17:00 +14°C° 0 mm 1 mps 698 mmHg 63%
    18:00 +13°C° 0 mm 1 mps 699 mmHg 68%
    19:00 +11°C° 0 mm 1 mps 699 mmHg 73%
    20:00 +10°C° 0 mm 1 mps 699 mmHg 77%
    21:00 +10°C° 0 mm 1 mps 699 mmHg 78%
    22:00 +9°C° 0 mm 1 mps 699 mmHg 78%
    23:00 +9°C° 0 mm 1 mps 699 mmHg 78%

    Tomorrow, 21 October, Saturday

    Time Temperature Precipitation Wind Pressure Humidity
    00:00 +9°C° 0 mm 1 mps 699 mmHg 78%
    01:00 +8°C° 0 mm 1 mps 699 mmHg 78%
    02:00 +8°C° 0 mm 1 mps 699 mmHg 77%
    03:00 +8°C° 0 mm 1 mps 699 mmHg 77%
    04:00 +8°C° 0 mm 1 mps 698 mmHg 77%
    05:00 +7°C° 0 mm 1 mps 698 mmHg 77%
    06:00 +8°C° 0 mm 1 mps 698 mmHg 76%
    07:00 +8°C° 0 mm 1 mps 699 mmHg 75%
    08:00 +9°C° 0 mm 1 mps 699 mmHg 73%
    09:00 +11°C° 0 mm 1 mps 699 mmHg 65%
    10:00 +14°C° 0 mm 1 mps 699 mmHg 56%
    11:00 +16°C° 0 mm 1 mps 699 mmHg 47%
    12:00 +18°C° 0 mm 1 mps 699 mmHg 45%
    13:00 +17°C° 0 mm 2 mps 698 mmHg 44%
    14:00 +18°C° 0 mm 2 mps 698 mmHg 43%
    15:00 +16°C° 0 mm 2 mps 698 mmHg 50%
    16:00 +15°C° 0 mm 1 mps 697 mmHg 57%
    17:00 +13°C° 0 mm 1 mps 697 mmHg 64%
    18:00 +12°C° 0.2 mm 1 mps 697 mmHg 69%
    19:00 +12°C° 0.2 mm 1 mps 697 mmHg 74%
    20:00 +11°C° 0.2 mm 1 mps 697 mmHg 79%
    21:00 +11°C° 0.7 mm 1 mps 697 mmHg 83%
    22:00 +10°C° 0.7 mm 1 mps 697 mmHg 87%
    23:00 +10°C° 0.7 mm 1 mps 697 mmHg 91%

    Day after tomorrow, 22 October, Sunday

    Time Temperature Precipitation Wind Pressure Humidity
    00:00 +9°C° 0.1 mm 1 mps 697 mmHg 92%
    01:00 +9°C° 0.1 mm 1 mps 697 mmHg 93%
    02:00 +8°C° 0.1 mm 1 mps 697 mmHg 94%
    03:00 +8°C° 0 mm 1 mps 697 mmHg 94%
    04:00 +8°C° 0 mm 1 mps 697 mmHg 93%
    05:00 +7°C° 0 mm 1 mps 696 mmHg 93%
    06:00 +7°C° 0 mm 1 mps 697 mmHg 92%
    07:00 +8°C° 0 mm 1 mps 697 mmHg 91%
    08:00 +8°C° 0 mm 1 mps 697 mmHg 90%
    09:00 +10°C° 0 mm 1 mps 697 mmHg 82%
    10:00 +12°C° 0 mm 1 mps 698 mmHg 75%
    11:00 +14°C° 0 mm 1 mps 698 mmHg 68%
    12:00 +14°C° 0 mm 1 mps 698 mmHg 65%
    13:00 +14°C° 0 mm 1 mps 697 mmHg 62%
    14:00 +14°C° 0 mm 1 mps 697 mmHg 60%
    15:00 +13°C° 0 mm 1 mps 697 mmHg 66%
    16:00 +12°C° 0 mm 1 mps 696 mmHg 72%
    17:00 +11°C° 0 mm 1 mps 696 mmHg 78%
    18:00 +10°C° 0 mm 1 mps 696 mmHg 82%
    19:00 +9°C° 0 mm 1 mps 696 mmHg 87%
    20:00 +8°C° 0 mm 1 mps 696 mmHg 91%
    21:00 +8°C° 0 mm 1 mps 695 mmHg 91%
    22:00 +8°C° 0 mm 1 mps 695 mmHg 92%
    23:00 +8°C° 0 mm 1 mps 695 mmHg 92%

    23 October, Monday

    Time Temperature Precipitation Wind Pressure Humidity
    00:00 +8°C° 0 mm 1 mps 695 mmHg 91%
    01:00 +7°C° 0 mm 1 mps 695 mmHg 91%
    02:00 +7°C° 0 mm 1 mps 694 mmHg 90%
    03:00 +7°C° 0 mm 1 mps 694 mmHg 90%
    04:00 +7°C° 0 mm 1 mps 693 mmHg 90%
    05:00 +7°C° 0 mm 1 mps 693 mmHg 89%
    06:00 +7°C° 0 mm 1 mps 693 mmHg 88%
    07:00 +8°C° 0 mm 1 mps 693 mmHg 86%
    08:00 +8°C° 0 mm 1 mps 693 mmHg 84%
    09:00 +9°C° 0.1 mm 2 mps 693 mmHg 80%
    10:00 +10°C° 0.1 mm 2 mps 693 mmHg 75%
    11:00 +13°C° 0.1 mm 2 mps 692 mmHg 70%
    12:00 +13°C° 0.2 mm 2 mps 692 mmHg 72%
    13:00 +12°C° 0.2 mm 2 mps 692 mmHg 74%
    14:00 +11°C° 0.2 mm 3 mps 691 mmHg 76%
    15:00 +12°C° 0.1 mm 2 mps 691 mmHg 80%
    16:00 +10°C° 0.1 mm 2 mps 691 mmHg 84%
    17:00 +10°C° 0.1 mm 2 mps 691 mmHg 88%
    18:00 +9°C° 0.1 mm 2 mps 691 mmHg 90%
    19:00 +9°C° 0.1 mm 2 mps 691 mmHg 92%
    20:00 +9°C° 0.1 mm 2 mps 691 mmHg 94%
    21:00 +9°C° 0.3 mm 2 mps 692 mmHg 95%
    22:00 +9°C° 0.3 mm 2 mps 692 mmHg 95%
    23:00 +9°C° 0.3 mm 2 mps 692 mmHg 95%

    24 October, Tuesday

    Time Temperature Precipitation Wind Pressure Humidity
    00:00 +9°C° 0.6 mm 2 mps 692 mmHg 95%
    01:00 +8°C° 0.6 mm 2 mps 692 mmHg 95%
    02:00 +8°C° 0.6 mm 2 mps 692 mmHg 95%
    03:00 +8°C° 0.2 mm 2 mps 692 mmHg 95%
    04:00 +8°C° 0.2 mm 2 mps 692 mmHg 95%
    05:00 +8°C° 0.2 mm 2 mps 692 mmHg 95%
    06:00 +8°C° 0.3 mm 2 mps 692 mmHg 95%
    07:00 +8°C° 0.3 mm 2 mps 693 mmHg 95%
    08:00 +8°C° 0.3 mm 2 mps 693 mmHg 95%
    09:00 +8°C° 0.3 mm 2 mps 694 mmHg 93%
    10:00 +9°C° 0.3 mm 2 mps 694 mmHg 91%
    11:00 +9°C° 0.3 mm 2 mps 695 mmHg 89%
    12:00 +9°C° 0.3 mm 2 mps 695 mmHg 89%
    13:00 +9°C° 0.3 mm 2 mps 695 mmHg 88%
    14:00 +10°C° 0.3 mm 2 mps 695 mmHg 88%
    15:00 +10°C° 0.5 mm 1 mps 696 mmHg 89%
    16:00 +10°C° 0.5 mm 1 mps 696 mmHg 91%
    17:00 +9°C° 0.5 mm 1 mps 696 mmHg 92%
    18:00 +9°C° 0.3 mm 1 mps 697 mmHg 93%
    19:00 +9°C° 0.3 mm 1 mps 697 mmHg 93%
    20:00 +9°C° 0.3 mm 1 mps 698 mmHg 93%
    21:00 +8°C° 0.1 mm 1 mps 698 mmHg 93%
    22:00 +8°C° 0.1 mm 1 mps 698 mmHg 93%
    23:00 +8°C° 0.1 mm 1 mps 699 mmHg 93%

    25 October, Wednesday

    Time Temperature Precipitation Wind Pressure Humidity
    00:00 +8°C° 0 mm 1 mps 699 mmHg 94%
    01:00 +8°C° 0 mm 1 mps 699 mmHg 94%
    02:00 +7°C° 0 mm 1 mps 700 mmHg 94%
    03:00 +7°C° 0 mm 1 mps 700 mmHg 94%
    04:00 +7°C° 0 mm 1 mps 700 mmHg 94%
    05:00 +7°C° 0 mm 1 mps 700 mmHg 94%
    06:00 +7°C° 0 mm 1 mps 700 mmHg 94%
    07:00 +7°C° 0 mm 1 mps 701 mmHg 93%
    08:00 +7°C° 0 mm 1 mps 701 mmHg 92%
    09:00 +8°C° 0 mm 1 mps 701 mmHg 90%
    10:00 +8°C° 0 mm 1 mps 702 mmHg 87%
    11:00 +9°C° 0 mm 1 mps 702 mmHg 84%
    12:00 +8°C° 0 mm 2 mps 702 mmHg 83%
    13:00 +8°C° 0 mm 2 mps 702 mmHg 81%
    14:00 +9°C° 0 mm 2 mps 702 mmHg 80%
    15:00 +8°C° 0 mm 2 mps 702 mmHg 83%
    16:00 +7°C° 0 mm 2 mps 702 mmHg 85%
    17:00 +7°C° 0 mm 2 mps 702 mmHg 88%
    18:00 +6°C° 0 mm 2 mps 703 mmHg 89%
    19:00 +6°C° 0 mm 2 mps 703 mmHg 91%
    20:00 +6°C° 0 mm 1 mps 703 mmHg 92%
    21:00 +6°C° 0 mm 1 mps 703 mmHg 93%
    22:00 +6°C° 0 mm 1 mps 704 mmHg 93%
    23:00 +5°C° 0 mm 1 mps 704 mmHg 93%
    Show more